TimeCDT,TemperatureF,Dew PointF,Humidity,Sea Level PressureIn,VisibilityMPH,Wind Direction,Wind SpeedMPH,Gust SpeedMPH,PrecipitationIn,Events,Conditions,WindDirDegrees,DateUTC
12:15 AM,59.0,57.2,94,30.14,10.0,Calm,Calm,-,N/A,,Clear,0,2013-07-30 05:15:00
12:35 AM,59.0,57.2,94,30.13,10.0,Calm,Calm,-,N/A,,Clear,0,2013-07-30 05:35:00
12:55 AM,59.0,57.2,94,30.13,10.0,Calm,Calm,-,N/A,,Clear,0,2013-07-30 05:55:00
1:15 AM,59.0,57.2,94,30.13,10.0,Calm,Calm,-,N/A,,Scattered Clouds,0,2013-07-30 06:15:00
1:35 AM,59.0,57.2,94,30.13,10.0,Calm,Calm,-,N/A,,Overcast,0,2013-07-30 06:35:00
1:55 AM,59.0,57.2,94,30.12,10.0,SSE,4.6,-,N/A,,Scattered Clouds,160,2013-07-30 06:55:00
2:15 AM,60.8,57.2,88,30.11,10.0,SE,5.8,-,N/A,,Clear,130,2013-07-30 07:15:00
2:35 AM,62.6,57.2,82,30.11,10.0,SE,5.8,-,N/A,,Partly Cloudy,130,2013-07-30 07:35:00
2:55 AM,62.6,57.2,82,30.11,10.0,Calm,Calm,-,N/A,,Scattered Clouds,0,2013-07-30 07:55:00
3:15 AM,62.6,57.2,82,30.11,10.0,SE,4.6,-,N/A,,Overcast,140,2013-07-30 08:15:00
3:35 AM,62.6,57.2,82,30.11,10.0,Calm,Calm,-,N/A,,Overcast,0,2013-07-30 08:35:00
3:55 AM,62.6,57.2,82,30.11,10.0,East,3.5,-,N/A,,Overcast,100,2013-07-30 08:55:00
4:35 AM,62.6,57.2,82,30.12,10.0,ESE,3.5,-,N/A,,Overcast,120,2013-07-30 09:35:00
4:55 AM,62.6,57.2,82,30.12,10.0,ESE,4.6,-,N/A,,Overcast,110,2013-07-30 09:55:00
5:15 AM,62.6,57.2,82,30.12,10.0,SE,3.5,-,N/A,,Overcast,130,2013-07-30 10:15:00
5:35 AM,62.6,57.2,82,30.13,10.0,SSE,4.6,-,N/A,,Overcast,150,2013-07-30 10:35:00
5:55 AM,62.6,57.2,82,30.13,10.0,East,5.8,-,N/A,,Overcast,100,2013-07-30 10:55:00
6:15 AM,62.6,59.0,88,30.12,9.0,East,9.2,-,N/A,,Overcast,100,2013-07-30 11:15:00
6:35 AM,62.6,59.0,88,30.12,10.0,ESE,6.9,-,N/A,,Overcast,110,2013-07-30 11:35:00
6:55 AM,62.6,59.0,88,30.12,10.0,ESE,8.1,-,N/A,,Overcast,110,2013-07-30 11:55:00
7:15 AM,62.6,59.0,88,30.13,10.0,East,6.9,-,N/A,,Overcast,100,2013-07-30 12:15:00
7:35 AM,64.4,59.0,83,30.13,10.0,Variable,6.9,-,N/A,,Overcast,0,2013-07-30 12:35:00
7:55 AM,64.4,59.0,83,30.14,10.0,ESE,5.8,-,N/A,,Overcast,110,2013-07-30 12:55:00
8:15 AM,64.4,59.0,83,30.13,10.0,ESE,8.1,-,N/A,,Overcast,110,2013-07-30 13:15:00
8:35 AM,64.4,59.0,83,30.13,10.0,SE,9.2,-,N/A,,Overcast,130,2013-07-30 13:35:00
8:55 AM,64.4,59.0,83,30.13,10.0,SE,9.2,-,N/A,,Overcast,130,2013-07-30 13:55:00
9:15 AM,64.4,60.8,88,30.12,10.0,ESE,8.1,-,N/A,,Mostly Cloudy,120,2013-07-30 14:15:00
9:35 AM,64.4,60.8,88,30.12,10.0,SE,10.4,-,N/A,,Mostly Cloudy,130,2013-07-30 14:35:00
9:55 AM,66.2,62.6,88,30.12,10.0,ESE,8.1,-,N/A,,Overcast,110,2013-07-30 14:55:00
10:15 AM,66.2,62.6,88,30.12,10.0,SE,9.2,-,N/A,,Overcast,140,2013-07-30 15:15:00
10:35 AM,66.2,62.6,88,30.12,10.0,ESE,10.4,-,N/A,,Overcast,120,2013-07-30 15:35:00
10:55 AM,66.2,62.6,88,30.12,10.0,SE,9.2,-,N/A,,Overcast,140,2013-07-30 15:55:00
11:15 AM,66.2,62.6,88,30.12,10.0,ESE,8.1,-,N/A,,Light Drizzle,120,2013-07-30 16:15:00
11:55 AM,66.2,62.6,88,30.11,10.0,ESE,9.2,-,N/A,,Overcast,120,2013-07-30 16:55:00
12:15 PM,66.2,62.6,88,30.10,10.0,ESE,11.5,-,N/A,,Overcast,120,2013-07-30 17:15:00
12:35 PM,66.2,62.6,88,30.10,10.0,SE,9.2,15.0,N/A,,Overcast,130,2013-07-30 17:35:00
1:15 PM,66.2,62.6,88,30.09,10.0,ESE,6.9,16.1,N/A,,Overcast,120,2013-07-30 18:15:00
1:35 PM,66.2,62.6,88,30.08,10.0,ESE,10.4,-,N/A,,Overcast,110,2013-07-30 18:35:00
1:55 PM,66.2,62.6,88,30.08,9.0,SE,10.4,16.1,N/A,,Overcast,130,2013-07-30 18:55:00
2:15 PM,66.2,62.6,88,30.08,10.0,SE,10.4,-,N/A,,Mostly Cloudy,130,2013-07-30 19:15:00
2:35 PM,66.2,62.6,88,30.08,10.0,ESE,9.2,-,N/A,,Overcast,120,2013-07-30 19:35:00
2:55 PM,66.2,62.6,88,30.08,7.0,ESE,8.1,-,N/A,,Overcast,110,2013-07-30 19:55:00
3:15 PM,66.2,64.4,94,30.08,9.0,ESE,8.1,-,N/A,,Overcast,120,2013-07-30 20:15:00
3:35 PM,66.2,64.4,94,30.07,4.0,East,8.1,-,N/A,,Overcast,100,2013-07-30 20:35:00
3:55 PM,66.2,64.4,94,30.07,2.5,North,-9999.0,-,N/A,,Overcast,0,2013-07-30 20:55:00
4:15 PM,66.2,64.4,94,30.07,3.0,Variable,5.8,-,N/A,,Overcast,0,2013-07-30 21:15:00
4:35 PM,66.2,64.4,94,30.07,3.0,East,6.9,-,N/A,,Overcast,90,2013-07-30 21:35:00
4:55 PM,66.2,64.4,94,30.07,2.5,East,4.6,-,N/A,,Overcast,100,2013-07-30 21:55:00
5:15 PM,66.2,64.4,94,30.08,4.0,East,4.6,-,N/A,,Overcast,90,2013-07-30 22:15:00
5:35 PM,66.2,64.4,94,30.07,2.0,East,5.8,-,N/A,,Overcast,90,2013-07-30 22:35:00
5:55 PM,66.2,64.4,94,30.07,2.0,East,5.8,-,N/A,,Mostly Cloudy,80,2013-07-30 22:55:00
6:15 PM,66.2,64.4,94,30.07,2.0,East,5.8,-,N/A,,Mostly Cloudy,80,2013-07-30 23:15:00
6:35 PM,66.2,64.4,94,30.07,2.0,East,5.8,-,N/A,,Mostly Cloudy,90,2013-07-30 23:35:00
6:55 PM,66.2,64.4,94,30.07,2.0,ENE,5.8,-,N/A,,Mostly Cloudy,70,2013-07-30 23:55:00
7:15 PM,66.2,64.4,94,30.07,3.0,NE,4.6,-,N/A,,Mostly Cloudy,50,2013-07-31 00:15:00
7:35 PM,66.2,64.4,94,30.06,4.0,ENE,4.6,-,N/A,,Mostly Cloudy,70,2013-07-31 00:35:00
7:55 PM,66.2,64.4,94,30.06,7.0,Calm,Calm,-,N/A,,Overcast,0,2013-07-31 00:55:00
8:15 PM,66.2,64.4,94,30.06,9.0,East,4.6,-,N/A,,Overcast,80,2013-07-31 01:15:00
8:35 PM,66.2,64.4,94,30.06,8.0,East,4.6,-,N/A,,Overcast,80,2013-07-31 01:35:00
8:55 PM,66.2,64.4,94,30.06,9.0,East,5.8,-,N/A,,Overcast,80,2013-07-31 01:55:00
9:15 PM,66.2,64.4,94,30.07,5.0,ENE,4.6,-,N/A,,Overcast,70,2013-07-31 02:15:00
9:35 PM,66.2,64.4,94,30.08,6.0,Calm,Calm,-,N/A,,Overcast,0,2013-07-31 02:35:00
9:55 PM,64.4,64.4,100,30.09,6.0,Calm,Calm,-,N/A,,Overcast,0,2013-07-31 02:55:00
10:15 PM,64.4,64.4,100,30.09,6.0,Calm,Calm,-,N/A,,Overcast,0,2013-07-31 03:15:00
10:35 PM,64.4,64.4,100,30.09,4.0,Calm,Calm,-,N/A,,Overcast,0,2013-07-31 03:35:00
10:55 PM,64.4,64.4,100,30.08,2.5,Calm,Calm,-,N/A,,Overcast,0,2013-07-31 03:55:00
11:15 PM,64.4,64.4,100,30.07,3.0,Calm,Calm,-,N/A,,Overcast,0,2013-07-31 04:15:00
11:35 PM,64.4,64.4,100,30.07,4.0,Calm,Calm,-,N/A,,Overcast,0,2013-07-31 04:35:00
11:55 PM,64.4,64.4,100,30.07,4.0,Calm,Calm,-,N/A,,Overcast,0,2013-07-31 04:55:00